[[{"header":{"parameterUnit":"m.s-1","parameterCategory":1,"la1":30.2991,"la2":30.254,"lo1":-89.0895,"lo2":-89.0444,"dy":0.0017,"dx":0.0017,"nx":28,"ny":28,"refTime":"2024-03-12T09:00:00:Z","depth":0,"parameterNumber":2,"parameterNumberName":"U-component_of_WINDS"},"data":[0,0,0,0,0,0,0,0,0,0,0,0,0,0,0,0,0,0,0,0,0,0,0,0,0,0,0,0,0,0,0,0,0,0,0,0,0,0,0,0,0,0,0,0,0,0,0,0,0,0,0,0,0,0,0,0,0,0,-3.9614,-3.9615,0,-3.9651,-3.9652,-3.9652,-3.9599,-3.9597,-3.9595,-3.9593,-3.963,-3.9633,-3.9635,0,0,0,0,0,0,0,0,0,0,0,0,0,-3.9496,-3.9498,-3.9614,-3.9615,-3.9615,-3.9651,-3.9652,-3.9652,-3.9599,-3.9597,-3.9595,-3.9592,-3.9629,-3.9632,-3.9635,0,0,0,0,0,0,0,0,0,0,0,0,0,-3.9542,-3.9499,-3.9614,-3.9593,-3.9591,-3.9651,-3.9652,-3.9653,-3.96,-3.9597,-3.9594,-3.9591,-3.9628,-3.9632,-3.9636,-3.9718,0,0,-3.9648,-3.965,0,0,0,0,0,0,0,0,-3.9539,-3.9546,-3.9595,-3.9594,-3.9593,-3.9618,-3.9624,-3.9674,-3.96,-3.9596,-3.9593,-3.959,-3.9628,-3.9632,-3.9645,-3.972,-3.9721,-3.9649,-3.9651,-3.9653,-3.9654,0,0,0,0,0,0,0,-3.9536,-3.9544,-3.9629,-3.9596,-3.9595,-3.9581,-3.9585,-3.9633,-3.9628,-3.9597,-3.9593,-3.9598,-3.9627,-3.9641,-3.9646,-3.9722,-3.9649,-3.9652,-3.9655,-3.9656,-3.9865,-3.9868,0,0,0,0,0,0,-3.9536,-3.9542,-3.9628,-3.963,-3.9559,-3.9586,-3.959,-3.9612,-3.9627,-3.9626,-3.96,-3.9595,-3.9636,-3.9641,-3.9647,-3.9742,-3.9653,-3.9657,-3.9659,-3.9862,-3.9866,-3.9869,0,0,0,0,0,0,-3.9533,-3.9544,-3.9626,-3.9585,-3.9594,-3.9591,-3.9617,-3.9615,-3.9629,-3.963,-3.9628,-3.9616,-3.9634,-3.9641,-3.9701,-3.9743,-3.9659,-3.9662,-3.9859,-3.9864,-3.9868,-3.9936,0,0,0,0,0,0,-3.953,-3.9543,-3.9574,-3.9586,-3.9597,-3.968,-3.962,-3.9617,-3.9637,-3.963,-3.9644,-3.9644,-3.9632,-3.9695,-3.9705,-3.9747,-3.9666,-3.9855,-3.9861,-3.9866,-3.9929,-3.9942,-3.9953,0,0,0,0,0,-3.9526,-3.9591,-3.9576,-3.9587,-3.9636,-3.9682,-3.9688,-3.9674,-3.964,-3.9671,-3.9672,-3.9643,-3.9738,-3.9701,-3.9712,-3.9756,-3.9852,-3.9859,-3.9866,-3.9924,-3.994,-3.9952,0,0,0,0,0,0,-3.9583,-3.9592,-3.9575,-3.9647,-3.9664,-3.9673,-3.9711,-3.969,-3.9717,-3.971,-3.9691,-3.9694,-3.9758,-3.9764,-3.9723,-3.9837,-3.9789,-3.9799,-3.983,-3.9844,-3.9856,-3.9852,-3.9669,0,0,0,0,0,-3.9605,-3.9642,-3.9648,-3.971,-3.972,-3.9715,-3.9735,-3.9722,-3.9739,-3.9746,-3.9751,-3.9768,-3.9802,-3.9824,-3.9855,-3.9932,-3.9933,-3.9967,-3.9979,-3.9989,-3.9996,-4.0036,-4.0051,-3.9892,-3.9892,-3.9892,0,0,-3.9648,-3.9658,-3.9683,-3.9722,-3.9734,-3.9773,-3.9721,-3.9764,-3.9793,-3.9752,-3.9808,-3.9814,-3.9832,-3.99,-3.9931,-3.9907,-4.0041,-3.9997,-4.0005,-4.0007,-4.0045,-4.006,-4.0073,-3.9897,-3.9896,-3.9895,0,0,-3.9747,-3.9759,-3.9811,-3.9825,-3.9845,-3.9841,-3.9854,-3.9867,-3.9868,-3.9925,-3.9896,-3.993,-3.9988,-4.0002,-4.0017,-4.0124,-4.0098,-4.0135,-4.0194,-4.0234,-4.0246,-4.0257,-4.0293,-4.0307,-4.0143,-4.0143,-4.0143,0,-3.9798,-3.9855,-3.9841,-3.9887,-3.9905,-3.9872,-3.9925,-3.9939,-3.9968,-3.9981,-3.9954,-4.0027,-4.0037,-4.0108,-4.0134,-4.0148,-4.0162,-4.0131,-4.0246,-4.0256,-4.0266,-4.0301,-4.0315,-4.0147,-4.0147,-4.0146,-4.0146,0,-3.9917,-3.9958,-3.9998,-4.0027,-4.005,-4.0099,-4.0092,-4.0118,-4.0104,-4.0104,-4.0162,-4.0174,-4.0206,-4.0223,-4.021,-4.0292,-4.0277,-4.0249,-4.02,-4.0286,-4.0318,-4.0331,-4.0153,-4.0152,-4.015,-4.0149,0,0,-4.0049,-4.0072,-4.0086,-4.0099,-4.0119,-4.015,-4.0199,-4.0231,-4.0253,-4.0275,-4.0314,-4.0365,-4.034,-4.0357,-4.0345,-4.0381,-4.0463,-4.0348,-4.0348,-4.0367,-4.0553,-4.0572,-4.0588,-4.0448,-4.045,-4.0452,-4.0551,0,-4.0146,-4.0229,-4.0219,-4.0298,-4.0335,-4.0306,-4.0348,-4.0365,-4.0366,-4.0398,-4.04,-4.0435,-4.04,-4.041,-4.0444,-4.0446,-4.05,-4.0439,-4.0482,-4.0484,-4.0476,-4.0605,-4.0625,-4.0717,-4.0564,-4.0566,-4.0567,0,-4.0269,-4.0296,-4.0379,-4.0394,-4.041,-4.0447,-4.0477,-4.0508,-4.0527,-4.0526,-4.0546,-4.0529,-4.0577,-4.0531,-4.0596,-4.0555,-4.0573,-4.0578,-4.0581,-4.0581,-4.0528,-4.0606,-4.0746,-4.0759,-4.0587,-4.0586,-4.0584,0,-4.0355,-4.0412,-4.0469,-4.0481,-4.0501,-4.0528,-4.0538,-4.0554,-4.0575,-4.0601,-4.0614,-4.0646,-4.0662,-4.0687,-4.0679,-4.0646,-4.0746,-4.0699,-4.0745,-4.0745,-4.0764,-4.0763,-4.0906,-4.0781,-4.0781,-4.0781,-4.0781,0,-4.0462,-4.0514,-4.0508,-4.0543,-4.06,-4.0588,-4.0645,-4.0651,-4.0666,-4.0702,-4.0679,-4.0713,-4.0702,-4.0735,-4.073,-4.0784,-4.0792,-4.0792,-4.0789,-4.0792,-4.0792,-4.0801,-4.0793,-4.0785,-4.0784,-4.0783,-4.0782,0,-4.0566,-4.0564,-4.0624,-4.0639,-4.0644,-4.0685,-4.0697,-4.073,-4.0731,-4.0776,-4.0786,-4.0787,-4.0825,-4.0821,-4.0863,-4.0859,-4.0926,-4.0918,-4.092,-4.0917,-4.0962,-4.0957,-4.1114,-4.1133,-4.0998,-4.1,-4.1001,0,-4.0633,-4.0672,-4.0691,-4.0714,-4.0725,-4.0762,-4.0783,-4.0774,-4.0797,-4.0823,-4.0852,-4.0889,-4.0916,-4.0979,-4.0983,-4.1015,-4.1005,-4.1058,-4.101,-4.1012,-4.1003,-4.1,-4.1003,-4.1067,-4.1068,-4.1069,-4.107,0,-4.0752,-4.075,-4.0781,-4.0813,-4.0839,-4.0864,-4.0886,-4.0906,-4.0899,-4.0926,-4.0965,-4.0987,-4.1031,-4.1067,-4.1098,-4.1107,-4.1087,-4.1086,-4.1098,-4.11,-4.1099,-4.1098,-4.0943,-4.1082,-4.1081,-4.108,-4.1079,-4.1079,-4.0838,-4.0871,-4.089,-4.0926,-4.0942,-4.0964,-4.0995,-4.1001,-4.1033,-4.1068,-4.1062,-4.1105,-4.1124,-4.1164,-4.1177,-4.1211,-4.1191,-4.1209,-4.1213,-4.1217,-4.1221,-4.1096,-4.1217,-4.1216,-4.1216,-4.1216,-4.1216,0,-4.0953,-4.0965,-4.0998,-4.103,-4.1059,-4.104,-4.1064,-4.1089,-4.1128,-4.1148,-4.1176,-4.1221,-4.1256,-4.1265,-4.1298,-4.1324,-4.1315,-4.1333,-4.1329,-4.1331,-4.1238,-4.1223,-4.1339,-4.1338,-4.1338,-4.1338,-4.1338,-4.1338,-4.1017,-4.1072,-4.1072,-4.1135,-4.1146,-4.1188,-4.1204,-4.1224,-4.1239,-4.129,-4.132,-4.1326,-4.1341,-4.1376,-4.1407,-4.1409,-4.1421,-4.1441,-4.1439,-4.135,-4.1338,-4.1326,-4.1312,-4.1445,-4.1445,-4.1529,-4.153,-4.1531]},{"header":{"parameterUnit":"m.s-1","parameterCategory":1,"la1":30.2991,"la2":30.254,"lo1":-89.0895,"lo2":-89.0444,"dy":0.0017,"dx":0.0017,"nx":28,"ny":28,"refTime":"2024-03-12T09:00:00:Z","depth":0,"parameterNumber":3,"parameterNumberName":"V-component_of_WINDS"},"data":[0,0,0,0,0,0,0,0,0,0,0,0,0,0,0,0,0,0,0,0,0,0,0,0,0,0,0,0,0,0,0,0,0,0,0,0,0,0,0,0,0,0,0,0,0,0,0,0,0,0,0,0,0,0,0,0,0,0,2.1143,2.1144,0,2.1259,2.126,2.1262,2.1341,2.1342,2.1343,2.1343,2.146,2.1463,2.1465,0,0,0,0,0,0,0,0,0,0,0,0,0,2.0989,2.0991,2.1142,2.1144,2.1145,2.1259,2.126,2.1262,2.1341,2.1342,2.1343,2.1343,2.146,2.1463,2.1466,0,0,0,0,0,0,0,0,0,0,0,0,0,2.1075,2.0992,2.1142,2.1199,2.1205,2.1258,2.126,2.1262,2.1341,2.1342,2.1343,2.1344,2.1459,2.1462,2.1466,2.1472,0,0,2.1478,2.1479,0,0,0,0,0,0,0,0,2.107,2.1081,2.1189,2.1195,2.1202,2.1287,2.1249,2.1333,2.1341,2.1289,2.1343,2.1344,2.1402,2.141,2.143,2.1477,2.1483,2.1478,2.148,2.1482,2.1483,0,0,0,0,0,0,0,2.1064,2.1076,2.1189,2.119,2.1198,2.1218,2.1232,2.1265,2.1339,2.1294,2.13,2.1313,2.1405,2.1426,2.1433,2.1484,2.1478,2.1481,2.1484,2.1485,2.1545,2.1545,0,0,0,0,0,0,2.105,2.1071,2.1185,2.1192,2.1137,2.122,2.1235,2.1259,2.1339,2.1352,2.1312,2.1316,2.1419,2.1429,2.1438,2.1452,2.1482,2.1486,2.1488,2.1546,2.1545,2.1545,0,0,0,0,0,0,2.1046,2.1059,2.118,2.1133,2.115,2.1222,2.1248,2.126,2.1281,2.1353,2.1366,2.132,2.142,2.1432,2.1464,2.1457,2.1487,2.1491,2.1547,2.1546,2.1545,2.1479,0,0,0,0,0,0,2.1041,2.1057,2.106,2.1133,2.1152,2.1204,2.1247,2.1262,2.1288,2.1294,2.1363,2.1376,2.1422,2.1458,2.1468,2.1463,2.1494,2.1548,2.1547,2.1545,2.1482,2.1476,2.1471,0,0,0,0,0,2.1035,2.1036,2.106,2.1073,2.1157,2.1203,2.1215,2.1268,2.1287,2.1291,2.1337,2.1373,2.1456,2.146,2.1472,2.1469,2.1549,2.1547,2.1545,2.1485,2.1477,2.1471,0,0,0,0,0,0,2.0959,2.1046,2.1074,2.1098,2.1143,2.1217,2.1223,2.1258,2.1298,2.1302,2.1367,2.1382,2.1407,2.1441,2.1444,2.148,2.1507,2.1508,2.1457,2.145,2.1445,2.1436,2.1497,0,0,0,0,0,2.0945,2.0975,2.105,2.1064,2.1085,2.115,2.1172,2.121,2.1259,2.1278,2.1326,2.1372,2.1409,2.1431,2.1469,2.1488,2.1505,2.1491,2.1486,2.148,2.148,2.1495,2.1491,2.1539,2.1539,2.1539,0,0,2.0916,2.0968,2.0983,2.105,2.1089,2.1119,2.1165,2.1194,2.1218,2.1282,2.1315,2.1352,2.1408,2.1434,2.1447,2.1463,2.1471,2.1478,2.1474,2.1477,2.1493,2.1488,2.1484,2.1538,2.1538,2.1539,0,0,2.088,2.0921,2.0939,2.0978,2.1037,2.1081,2.1085,2.1154,2.1182,2.1216,2.1266,2.1295,2.1356,2.1394,2.1421,2.1402,2.1438,2.1412,2.1382,2.1396,2.1392,2.1389,2.1383,2.138,2.1412,2.1412,2.1412,0,2.0836,2.0884,2.0943,2.097,2.0999,2.106,2.1079,2.1113,2.1181,2.12,2.1217,2.1297,2.1338,2.1375,2.137,2.139,2.1397,2.1405,2.1388,2.1385,2.1383,2.1379,2.1376,2.1409,2.1409,2.1409,2.141,0,2.0829,2.0861,2.0868,2.0934,2.0964,2.0986,2.1049,2.1072,2.1107,2.1149,2.1185,2.1237,2.1287,2.1299,2.1333,2.1341,2.1349,2.1376,2.1404,2.1374,2.1371,2.137,2.1404,2.1405,2.1406,2.1407,0,0,2.0746,2.0846,2.0848,2.088,2.0951,2.0977,2.1003,2.1054,2.1073,2.1118,2.1142,2.1194,2.122,2.1251,2.1291,2.1302,2.1286,2.1328,2.1331,2.132,2.13,2.128,2.1277,2.131,2.131,2.131,2.1296,0,2.0722,2.0772,2.0827,2.0858,2.089,2.095,2.0973,2.1019,2.1059,2.1092,2.1137,2.1173,2.1204,2.1223,2.1238,2.1285,2.1283,2.1287,2.1334,2.1335,2.1319,2.1275,2.1254,2.1238,2.1295,2.1295,2.1294,0,2.0699,2.0744,2.0779,2.0849,2.0865,2.0884,2.0936,2.0966,2.1021,2.105,2.1085,2.1128,2.116,2.1184,2.1229,2.123,2.1253,2.1279,2.128,2.1287,2.1313,2.1282,2.1234,2.1231,2.1293,2.1293,2.1293,0,2.0638,2.0706,2.0736,2.0761,2.0844,2.0857,2.0892,2.0947,2.0975,2.102,2.1039,2.1086,2.1112,2.1148,2.1203,2.1216,2.1243,2.1272,2.1268,2.1267,2.1271,2.127,2.1227,2.1284,2.1284,2.1284,2.1284,0,2.0605,2.0624,2.071,2.0729,2.0753,2.0816,2.0838,2.0878,2.0927,2.0955,2.1009,2.1034,2.1105,2.1139,2.1182,2.1213,2.1224,2.1249,2.126,2.1245,2.1242,2.1261,2.1263,2.1284,2.1284,2.1284,2.1284,0,2.054,2.0598,2.0636,2.0711,2.0731,2.0745,2.0811,2.0831,2.0876,2.0911,2.0922,2.0991,2.1034,2.1093,2.1153,2.1182,2.1208,2.1226,2.119,2.1197,2.1191,2.1191,2.1159,2.1158,2.1214,2.1213,2.1213,0,2.0515,2.0532,2.061,2.0634,2.0667,2.0703,2.0732,2.0795,2.0823,2.0888,2.0901,2.0948,2.0989,2.1055,2.1111,2.1158,2.1177,2.1163,2.1185,2.1169,2.1179,2.1177,2.118,2.1157,2.1156,2.1156,2.1155,0,2.0467,2.0495,2.0535,2.0586,2.0619,2.0661,2.0706,2.0722,2.0795,2.0824,2.0869,2.0901,2.0964,2.101,2.1065,2.1101,2.1141,2.1148,2.115,2.1134,2.1114,2.1126,2.1177,2.1148,2.1149,2.1149,2.115,2.115,2.0423,2.0441,2.05,2.0543,2.0584,2.0625,2.0649,2.0697,2.0736,2.0792,2.0827,2.0871,2.0927,2.1005,2.104,2.1075,2.1091,2.1093,2.1094,2.1094,2.1089,2.1107,2.1085,2.1085,2.1086,2.1086,2.1086,0,2.0378,2.0419,2.0458,2.052,2.0554,2.0589,2.0641,2.0668,2.0706,2.0755,2.0795,2.0848,2.0894,2.0954,2.1004,2.1021,2.1041,2.1032,2.1032,2.104,2.1072,2.1065,2.1016,2.1016,2.1016,2.1016,2.1016,2.1016,2.0359,2.0392,2.0428,2.0483,2.0524,2.0568,2.0595,2.0634,2.0674,2.0731,2.0769,2.0809,2.0863,2.0918,2.0962,2.0978,2.0995,2.0981,2.1003,2.1031,2.1038,2.1044,2.1038,2.0984,2.0984,2.0969,2.0969,2.0969]}]]